FW2617 Weather Reports


time (UTC)temp
C
wind
direction
speed
KPH
gust
KPH
rain 1hr
cm
rain 24hr
cm
rain mn
cm
humidity
%
barometer
mb
20260510020904 27 155 3.2 6.4 0.00 0.00 0.00 54 1005.7
20260510020005 27 155 1.6 6.4 0.00 0.00 0.00 53 1005.5
20260510015404 28 155 1.6 4.8 0.00 0.00 0.00 52 1005.4
20260510014504 28 155 1.6 4.8 0.00 0.00 0.00 52 1005.4
20260510013604 28 155 1.6 4.8 0.00 0.00 0.00 51 1005.3
20260510012704 29 155 1.6 4.8 0.00 0.00 0.00 50 1005.2
20260510011825 30 155 0.0 3.2 0.00 0.00 0.00 49 1005.1
20260510010904 30 155 1.6 4.8 0.00 0.00 0.00 49 1005.0
20260510010004 30 154 1.6 3.2 0.00 0.00 0.00 48 1005.0
20260510005404 30 155 3.2 8.0 0.00 0.00 0.00 47 1005.0
20260510004504 30 155 3.2 8.0 0.00 0.00 0.00 46 1004.9
20260510003604 30 155 3.2 9.7 0.00 0.00 0.00 45 1004.9
20260510002725 31 149 3.2 8.0 0.00 0.00 0.00 44 1004.8
20260510001804 31 152 3.2 6.4 0.00 0.00 0.00 44 1004.9
20260510000904 31 156 3.2 8.0 0.00 0.00 0.00 44 1004.9
20260510000025 31 164 3.2 8.0 0.00 0.00 0.00 43 1004.8
20260509235425 32 159 3.2 6.4 0.00 0.00 0.00 43 1004.8
20260509234504 32 138 1.6 8.0 0.00 0.00 0.00 42 1004.9
20260509233604 33 69 3.2 8.0 0.00 0.00 0.00 42 1004.9
20260509232704 33 60 4.8 9.7 0.00 0.00 0.00 40 1004.8
20260509231805 33 10 3.2 8.0 0.00 0.00 0.00 42 1004.8
20260509230925 33 56 3.2 8.0 0.00 0.00 0.00 41 1004.8
20260509230004 33 67 1.6 6.4 0.00 0.00 0.00 41 1004.9
20260509225404 33 89 1.6 9.7 0.00 0.00 0.00 41 1004.9
20260509224504 33 65 3.2 6.4 0.00 0.00 0.00 42 1004.9
20260509223604 34 47 3.2 6.4 0.00 0.00 0.00 43 1004.9
20260509222725 34 48 3.2 6.4 0.00 0.00 0.00 40 1004.9
20260509221804 34 18 3.2 6.4 0.00 0.00 0.00 40 1004.8
20260509220904 34 35 1.6 8.0 0.00 0.00 0.00 41 1004.8
20260509220004 33 49 3.2 9.7 0.00 0.00 0.00 42 1004.9
20260509215404 33 52 4.8 11.3 0.00 0.00 0.00 43 1004.9
20260509214525 33 28 6.4 14.5 0.00 0.00 0.00 41 1005.0
20260509213604 33 360 4.8 12.9 0.00 0.00 0.00 42 1005.1
20260509212704 33 28 4.8 11.3 0.00 0.00 0.00 40 1005.2
20260509211825 33 17 4.8 11.3 0.00 0.00 0.00 41 1005.4
20260509210903 33 47 4.8 12.9 0.00 0.00 0.00 41 1005.5
20260509210025 33 31 4.8 12.9 0.00 0.00 0.00 41 1005.5
20260509205404 33 32 4.8 11.3 0.00 0.00 0.00 44 1005.7
20260509204504 33 95 3.2 9.7 0.00 0.00 0.00 45 1005.8
20260509203604 33 63 4.8 12.9 0.00 0.00 0.00 44 1005.9
20260509202704 33 4 4.8 11.3 0.00 0.00 0.00 45 1006.0
20260509201804 33 290 3.2 9.7 0.00 0.00 0.00 44 1006.2
20260509200904 33 16 3.2 8.0 0.00 0.00 0.00 44 1006.2
20260509200025 33 46 4.8 9.7 0.00 0.00 0.00 48 1006.3
20260509195404 33 41 4.8 9.7 0.00 0.00 0.00 45 1006.4
20260509194525 32 345 6.4 14.5 0.00 0.00 0.00 47 1006.5
20260509193604 32 8 3.2 14.5 0.00 0.00 0.00 48 1006.6
20260509192725 32 356 3.2 12.9 0.00 0.00 0.00 48 1006.6
20260509191804 32 337 4.8 12.9 0.00 0.00 0.00 48 1006.8
20260509190904 31 349 6.4 14.5 0.00 0.00 0.00 50 1006.7
20260509190004 31 319 6.4 14.5 0.00 0.00 0.00 49 1006.8
20260509185404 31 317 6.4 16.1 0.00 0.00 0.00 51 1007.0
20260509184504 31 320 6.4 16.1 0.00 0.00 0.00 52 1007.1
20260509183604 31 325 6.4 16.1 0.00 0.00 0.00 50 1007.1
20260509182704 31 331 6.4 12.9 0.00 0.00 0.00 52 1007.2
20260509181804 31 331 4.8 12.9 0.00 0.00 0.00 55 1007.2
20260509180904 30 303 8.0 19.3 0.00 0.00 0.00 53 1007.3
20260509180004 30 313 6.4 16.1 0.00 0.00 0.00 52 1007.5
20260509175404 30 313 6.4 16.1 0.00 0.00 0.00 53 1007.5
20260509174504 30 315 8.0 16.1 0.00 0.00 0.00 53 1007.6
20260509173604 30 320 8.0 22.5 0.00 0.00 0.00 53 1007.6
20260509172704 30 357 6.4 16.1 0.00 0.00 0.00 55 1007.8
20260509171804 30 360 6.4 14.5 0.00 0.00 0.00 57 1007.9
20260509170904 29 330 6.4 14.5 0.00 0.00 0.00 56 1007.9
20260509170004 29 319 6.4 14.5 0.00 0.00 0.00 55 1007.9
20260509165425 28 329 6.4 14.5 0.00 0.00 0.00 58 1007.9
20260509164525 28 348 6.4 14.5 0.00 0.00 0.00 58 1008.1
20260509163604 28 335 6.4 16.1 0.00 0.00 0.00 58 1008.2
20260509162704 28 344 6.4 14.5 0.00 0.00 0.00 61 1008.2
20260509161804 27 331 4.8 9.7 0.00 0.00 0.00 62 1008.1
20260509160903 27 321 4.8 11.3 0.00 0.00 0.00 64 1008.2
20260509160004 26 301 3.2 9.7 0.00 0.00 0.00 65 1008.2
20260509155403 26 321 4.8 9.7 0.00 0.00 0.00 66 1008.2
20260509154504 26 325 8.0 16.1 0.00 0.00 0.00 67 1008.2
20260509153604 25 357 8.0 16.1 0.00 0.00 0.00 70 1008.0
20260509152704 25 3 9.7 17.7 0.00 0.00 0.00 71 1007.9
20260509151804 25 6 9.7 17.7 0.00 0.00 0.00 72 1007.9
20260509150903 24 4 8.0 17.7 0.00 0.00 0.00 73 1007.8
20260509150004 24 15 9.7 17.7 0.00 0.00 0.00 74 1007.9
20260509145404 23 2 8.0 17.7 0.00 0.00 0.00 75 1008.0
20260509144503 23 344 6.4 16.1 0.00 0.00 0.00 78 1008.1
20260509143625 23 341 6.4 14.5 0.00 0.00 0.00 79 1008.2
20260509142704 23 329 6.4 16.1 0.00 0.00 0.00 80 1008.2
20260509141804 23 327 9.7 16.1 0.00 0.00 0.00 80 1008.2
20260509140904 22 331 9.7 17.7 0.00 0.00 0.00 81 1008.1
20260509140005 22 324 8.0 17.7 0.00 0.00 0.00 82 1007.9
20260509135404 22 328 11.3 17.7 0.00 0.00 0.00 82 1007.9
20260509134504 22 332 9.7 17.7 0.00 0.00 0.00 83 1007.9
20260509133604 21 332 8.0 17.7 0.00 0.00 0.00 84 1007.9
20260509132704 21 333 11.3 22.5 0.00 0.00 0.00 84 1007.8
20260509131804 21 332 11.3 20.9 0.00 0.00 0.00 85 1007.7
20260509130904 21 336 9.7 19.3 0.00 0.00 0.00 86 1007.6
20260509130004 20 338 6.4 12.9 0.00 0.00 0.00 87 1007.5
20260509125404 20 330 6.4 14.5 0.00 0.00 0.00 87 1007.5
20260509124504 20 329 6.4 12.9 0.00 0.00 0.00 88 1007.4
20260509123604 19 323 4.8 8.0 0.00 0.00 0.00 89 1007.5
20260509122703 19 322 0.0 8.0 0.00 0.00 0.00 89 1007.5
20260509121804 20 0 0.0 0.0 0.00 0.00 0.00 90 1007.5
20260509120904 20 0 0.0 0.0 0.00 0.00 0.00 91 1007.4
20260509120004 20 304 0.0 1.6 0.00 0.00 0.00 91 1007.6
20260509115404 20 304 0.0 3.2 0.00 0.00 0.00 91 1007.5
20260509114504 21 304 0.0 1.6 0.00 0.00 0.00 91 1007.6
20260509113625 21 304 0.0 3.2 0.00 0.00 0.00 91 1007.7
20260509112704 21 305 1.6 6.4 0.00 0.00 0.00 92 1007.7
20260509111804 21 320 3.2 6.4 0.00 0.00 0.00 92 1007.7
20260509110925 21 329 4.8 9.7 0.00 0.00 0.00 92 1007.7
20260509110004 21 322 6.4 12.9 0.00 0.00 0.00 92 1007.4
20260509105424 21 320 6.4 12.9 0.00 0.00 0.00 92 1007.5
20260509104504 21 325 8.0 17.7 0.00 0.00 0.00 92 1007.4
20260509103604 21 328 11.3 20.9 0.00 0.00 0.00 92 1007.0
20260509102704 21 292 3.2 17.7 0.00 0.00 0.00 92 1006.8
20260509101804 21 176 8.0 16.1 0.00 0.00 0.00 92 1005.7
20260509100904 21 180 9.7 22.5 0.00 0.00 0.00 92 1005.2
20260509100004 21 181 8.0 24.1 0.00 0.00 0.00 93 1005.2
20260509095404 21 175 9.7 24.1 0.00 0.00 0.00 93 1005.0
20260509094504 20 165 11.3 27.4 0.00 0.00 0.00 93 1004.6
20260509093625 20 168 9.7 22.5 0.00 0.00 0.00 93 1004.8
20260509092704 20 170 8.0 17.7 0.00 0.00 0.00 92 1005.1
20260509091804 20 170 11.3 24.1 0.00 0.00 0.00 92 1005.3
20260509090925 20 169 9.7 24.1 0.00 0.00 0.00 92 1005.5
20260509090025 20 168 8.0 16.1 0.00 0.00 0.00 92 1005.6
20260509085404 20 167 6.4 14.5 0.00 0.00 0.00 92 1005.9
20260509084504 20 167 6.4 14.5 0.00 0.00 0.00 92 1006.2
20260509083604 20 167 8.0 16.1 0.00 0.00 0.00 92 1006.3
20260509082725 20 170 6.4 16.1 0.00 0.00 0.00 92 1006.8
20260509081803 20 168 8.0 19.3 0.00 0.00 0.00 92 1007.0
20260509080904 20 167 4.8 11.3 0.00 0.00 0.00 91 1007.6
20260509080003 21 178 4.8 12.9 0.00 0.00 0.00 91 1008.1
20260509075403 21 193 4.8 12.9 0.00 0.00 0.00 91 1008.5
20260509074504 21 257 6.4 12.9 0.00 0.00 0.00 91 1008.8
20260509073604 21 285 8.0 17.7 0.00 0.00 0.00 91 1009.8
20260509072725 21 288 4.8 11.3 0.00 0.00 0.00 91 1009.5
20260509071803 20 319 4.8 11.3 0.00 0.00 0.00 91 1009.3
20260509070904 20 317 3.2 8.0 0.00 0.00 0.00 91 1009.4
20260509070004 20 309 3.2 4.8 0.00 0.00 0.00 91 1009.3
20260509065404 20 323 3.2 8.0 0.00 0.00 0.00 91 1009.3
20260509064525 20 344 3.2 8.0 0.00 0.00 0.00 91 1009.6
20260509063604 20 345 0.0 4.8 0.00 0.00 0.00 90 1009.1
20260509062704 20 350 3.2 8.0 0.00 0.00 0.00 90 1009.0
20260509061804 20 185 1.6 6.4 0.00 0.00 0.00 90 1008.9
20260509060903 20 170 1.6 6.4 0.00 0.00 0.00 90 1008.7
20260509060004 20 170 1.6 6.4 0.00 0.00 0.00 90 1008.4
20260509055404 21 170 1.6 3.2 0.00 0.00 0.00 90 1008.1
20260509054504 21 170 1.6 3.2 0.00 0.00 0.00 90 1008.1
20260509053604 21 170 1.6 6.4 0.00 0.00 0.00 90 1008.1
20260509052725 21 171 3.2 8.0 0.00 0.00 0.00 90 1008.3
20260509051804 21 164 1.6 6.4 0.00 0.00 0.00 90 1008.0
20260509050925 21 166 1.6 6.4 0.00 0.00 0.00 89 1007.9
20260509050025 21 140 0.0 3.2 0.00 0.00 0.00 89 1008.3
20260509045403 21 0 0.0 0.0 0.00 0.00 0.00 88 1008.4
20260509044504 21 0 0.0 0.0 0.00 0.00 0.00 88 1008.5
20260509043625 21 148 0.0 4.8 0.00 0.00 0.00 88 1008.4
20260509042704 21 159 3.2 8.0 0.00 0.00 0.00 88 1008.1
20260509041804 21 167 4.8 9.7 0.00 0.00 0.00 88 1007.6
20260509040925 21 165 4.8 8.0 0.00 0.00 0.00 88 1007.6
20260509040025 22 164 3.2 9.7 0.00 0.00 0.00 88 1007.9
20260509035404 22 163 3.2 8.0 0.00 0.00 0.00 88 1007.8
20260509034525 22 162 1.6 9.7 0.00 0.00 0.00 87 1007.8
20260509033604 22 168 3.2 9.7 0.00 0.00 0.00 87 1007.5
20260509032704 22 169 4.8 11.3 0.00 0.00 0.00 86 1007.4
20260509031803 22 167 4.8 11.3 0.00 0.00 0.00 86 1007.3
20260509030904 22 166 6.4 12.9 0.00 0.00 0.00 86 1007.1
20260509030004 22 168 4.8 12.9 0.00 0.00 0.00 85 1007.1
20260509025404 22 167 4.8 9.7 0.00 0.00 0.00 85 1007.2
20260509024504 22 166 1.6 8.0 0.00 0.00 0.00 85 1007.2
20260509023625 22 173 3.2 9.7 0.00 0.00 0.00 84 1007.0
20260509022704 22 194 1.6 8.0 0.00 0.00 0.00 84 1006.9
20260509021804 22 175 1.6 6.4 0.00 0.00 0.00 84 1006.8